Location: Cesson
(48.5620°N, 2.6082°E)
Time: 18:13:44
(UTC+00:00)

Daily predictions for brighter satellites

Satellite Brightness Start Highest point End
(mag) Time Altitude Azimuth Time Altitude Azimuth Time Altitude Azimuth
IRS-1C Rocket 4.2 17:48:16 10° SSE 17:53:25 59° ENE 17:58:37 10° N
Okean O Rocket 2.9 17:52:51 10° S 17:57:03 47° W 18:01:16 10° NNW
NOSS 2-1 (E) 4.5 17:53:01 10° NNW 17:57:38 49° NE 18:04:02 10° ESE
Cosmos 2369 4.0 17:53:27 10° S 17:58:50 49° ESE 18:04:18 10° NE
USA 305 4.1 17:55:32 10° SSW 17:59:08 27° SE 18:02:45 10° ENE
Feng Yun 1-1 Rocket 4.5 17:55:53 10° SSE 18:01:43 89° WSW 18:07:41 10° NNW
Cosmos 1607 4.1 17:56:20 10° SSW 18:02:44 79° SE 18:09:15 10° NE
Meteor 1-10 Rocket 4.3 17:59:13 10° N 18:05:02 81° ENE 18:10:42 10° SSE
SeaSat 1 2.9 18:01:06 10° NE 18:05:47 41° ESE 18:10:26 10° S
USA 307 4.0 18:03:12 10° SSW 18:06:54 29° SE 18:10:33 10° ENE
CZ-4 R/B 1.3 18:03:24 10° SSE 18:07:11 58° ENE 18:11:00 10° N
Cosmos 2263 Rocket 2.8 18:02:19 10° NNW 18:07:28 36° NE 18:12:35 10° ESE
SKYMED 2 3.6 18:03:24 10° NNE 18:07:46 84° ESE 18:12:07 10° SSW
Cosmos 1420 Rocket 4.5 18:03:05 10° SSW 18:08:22 68° WNW 18:13:42 10° NNE
FALCON 9 DEB 4.1 18:10:23 10° SSW 18:13:08 27° SE 18:15:24 13° E
USA 306 3.8 18:09:24 10° SSW 18:13:15 33° SE 18:16:45 12° ENE
Cosmos 2227 Rocket 3.5 18:09:56 10° NW 18:15:17 44° WSW 18:20:37 10° S
USA 308 3.7 18:13:15 10° SSW 18:17:07 34° SE 18:20:27 13° ENE
Cosmos 1743 Rocket 3.5 18:15:15 10° S 18:19:36 89° ESE 18:24:03 10° N
H-2A R/B 3.6 18:16:30 10° N 18:20:20 38° WNW 18:24:07 10° SW
Cosmos 1805 Rocket 3.7 18:16:30 10° SSE 18:20:42 49° E 18:24:58 10° NNE
Cosmos 1850 Rocket 4.2 18:16:44 10° NNW 18:21:55 75° WSW 18:27:05 10° SSE
Meteor 1-27 Rocket 3.6 18:19:23 10° N 18:24:57 74° ENE 18:30:27 10° SSE
Cosmos 2184 Rocket 4.4 18:20:08 10° SSE 18:25:43 38° E 18:31:21 10° NNE
H-2A R/B 2.2 18:21:30 10° SSE 18:26:55 86° ENE 18:32:25 10° NNW
ARGOS 3.2 18:22:25 10° SSE 18:27:46 64° ENE 18:33:09 10° N
Cosmos 2228 Rocket 3.2 18:23:28 10° N 18:28:03 84° W 18:32:32 10° S
Cosmos 1862 4.0 18:24:33 10° SSW 18:28:32 60° WNW 18:32:33 10° N
SJ-6B 4.2 18:28:39 16° E 18:30:29 21° ENE 18:33:33 10° NNE
Cosmos 1271 Rocket 3.2 18:27:14 10° N 18:30:42 35° ENE 18:34:09 10° SE
COSMOS 2455 2.8 18:25:01 10° NNW 18:31:04 81° NE 18:37:06 10° SE
Cosmos 2278 3.8 18:25:41 10° S 18:31:12 55° ESE 18:36:45 10° NE
OBJECT-B 3.0 18:32:14 12° NE 18:32:14 12° NE 18:32:58 10° NE
FALCON 9 DEB 3.4 18:28:45 10° SW 18:31:47 42° SE 18:33:30 21° E
SL-08 RB Rocket 3.9 18:28:16 10° SE 18:32:35 48° ENE 18:36:57 10° N
GP-B 4.3 18:33:07 15° ESE 18:35:10 21° ENE 18:38:27 10° NNE
HJ-1C 3.3 18:32:01 10° SSE 18:35:20 65° ENE 18:38:38 10° N
Cosmos 1812 4.4 18:33:05 10° NNW 18:36:39 37° W 18:40:12 10° SSW
Okean 1 4.4 18:34:02 10° NNE 18:37:21 24° ENE 18:38:49 20° ESE
CZ-2C R/B 3.0 18:32:26 10° NNE 18:37:47 45° E 18:42:58 10° S
Cosmos 1689 Rocket 1.9 18:35:16 10° NNE 18:38:07 63° ESE 18:40:57 10° S
FALCON 9 DEB 4.0 18:35:01 10° W 18:38:18 41° N 18:40:28 18° NE
CSL-04 Debris 4.1 18:35:37 10° SSE 18:41:01 74° ENE 18:46:28 10° NNW
Cosmos 1862 Rocket 4.3 18:38:18 10° N 18:42:23 33° ENE 18:45:36 15° SE
ATLAS 5 CENTAUR R/B 3.6 18:25:53 10° SW 18:42:25 76° NW 18:46:35 10° NE
Cosmos 2084 3.3 18:38:16 10° SSW 18:42:27 73° SE 18:46:18 13° NE
Cosmos 1666 Rocket 3.9 18:38:35 10° SSE 18:42:38 39° E 18:46:41 10° NNE
Cosmos 1709 Rocket 4.4 18:37:35 10° SSW 18:43:41 66° WNW 18:49:55 10° N
BREEZE-M DEB (TANK) 1.5 18:42:28 10° WSW 18:44:39 84° SSE 18:46:17 25° ENE
Cosmos 1844 Rocket 4.1 18:41:03 10° N 18:45:11 21° NE 18:47:04 18° ENE
Cosmos 2181 Rocket 4.2 18:39:06 10° N 18:45:35 80° W 18:52:00 10° S
NOSS 2-1 (C) 4.3 18:41:20 10° NW 18:46:13 84° SW 18:53:08 10° SE
Cosmos 1331 Rocket 3.9 18:41:14 10° S 18:46:29 69° ESE 18:51:43 10° NNE
Gbstr 26 Del rocket 3.7 18:42:20 10° SW 18:46:32 44° SE 18:49:30 22° E
CSL-04 Rocket 3.7 18:42:50 10° SSE 18:48:24 79° ENE 18:53:57 10° NNW
TSX-5 3.9 18:44:35 10° NNW 18:49:17 85° WSW 18:52:49 11° SSE
Cosmos 292 Rocket 4.0 18:44:58 10° SSW 18:49:42 74° WNW 18:54:28 10° NNE
NOSS 2-1 (D) 4.4 18:47:25 10° NW 18:52:20 78° SW 18:59:19 10° SSE
COSMO-SKYMED 1 4.4 18:51:48 10° N 18:55:43 34° WNW 18:59:38 10° SW
FALCON 9 DEB 3.0 18:53:04 10° SW 18:56:13 58° SSE 18:56:59 42° E
YAOGAN 1 3.6 18:52:54 10° S 18:57:06 49° W 19:01:19 10° NNW
Helios 1A Rocket 3.1 18:53:27 10° S 18:57:32 74° WSW 19:01:37 10° NNW
Okean-O 3.6 18:54:08 10° S 18:58:26 50° W 19:02:47 10° NNW
Cosmos 220 Rocket 4.0 18:57:15 10° SSW 19:01:28 82° WNW 19:05:45 10° NNE
SL-4 R/B 1.6 18:58:38 10° WSW 19:02:11 78° NNW 19:03:19 39° ENE
FALCON 9 DEB 2.7 19:01:28 10° WSW 19:04:38 78° SSE 19:05:10 57° E
APEX 3.1 19:03:08 10° NNW 19:05:43 41° NNE 19:05:43 41° NNE
Cosmos 1980 Rocket 2.3 19:00:48 10° SSW 19:06:29 80° WNW 19:12:13 10° NNE
Lacrosse 5 rocket 3.2 19:03:05 10° WNW 19:06:57 30° SW 19:10:38 10° SSE
Sich 1 3.3 19:04:37 10° SSW 19:08:58 71° W 19:13:23 10° N
CZ-4B R/B 4.3 19:07:32 10° NNW 19:09:30 16° WNW 19:11:28 10° WSW
Cosmos 1302 Rocket 3.9 19:09:25 10° S 19:14:31 62° ESE 19:19:40 10° NNE
Cosmos 2227 4.2 19:09:36 10° NNW 19:15:25 85° WSW 19:20:30 14° SSE
Cosmos 2322 Rocket 3.0 19:11:12 10° SSE 19:15:03 30° SE 19:15:03 30° SE
Cosmos 968 Rocket 3.5 19:11:31 10° NNW 19:16:45 63° ENE 19:19:11 31° SE
Cosmos 1437 3.8 19:15:50 10° NNW 19:18:36 40° W 19:21:07 11° SSW
Cosmos 1707 Rocket 4.0 19:14:43 10° NNW 19:19:07 61° W 19:23:25 10° S
ERS-2 3.7 19:19:43 10° N 19:23:07 37° WNW 19:26:30 10° SW
Cosmos 1503 Rocket 4.4 19:18:23 10° N 19:23:17 39° ENE 19:23:43 38° ENE
Cosmos 1867 3.6 19:18:03 10° SW 19:23:30 80° NW 19:28:07 15° NE
Cosmos 1633 Rocket 3.0 19:20:39 10° S 19:25:03 88° ESE 19:29:32 10° N
Meteor 1-20 Rocket 4.1 19:23:33 10° SSW 19:29:00 85° W 19:34:32 10° N
Cosmos 1697 Rocket 4.3 19:26:04 10° WSW 19:31:10 34° NW 19:36:17 10° NNE
USA 234 3.3 19:29:23 22° NE 19:33:51 81° NNW 19:40:24 10° WSW
SL-16 R/B 2.2 19:29:52 10° S 19:35:22 55° ESE 19:37:14 38° ENE
Meteor 1-19 Rocket 4.3 19:31:16 10° NNW 19:37:20 88° W 19:42:34 14° S
USA 305 2.9 19:34:32 10° WSW 19:38:49 76° NNW 19:39:14 68° NNE
MOS 1 4.2 19:39:28 32° SSE 19:42:16 81° ENE 19:47:59 10° NNW
Cosmos 2327 Rocket 4.5 19:36:16 10° S 19:42:39 89° W 19:49:00 10° N
Resurs 01 Rocket 3.0 19:44:38 26° NNE 19:44:38 26° NNE 19:46:52 10° N
SeaSat 1 3.9 19:38:44 10° NNE 19:43:15 37° NW 19:47:45 10° WSW
Ariane Rocket 2.9 19:43:24 44° SSE 19:45:04 86° ENE 19:50:13 10° NNW
DMSP B5D2-2 4.1 19:40:09 10° NNE 19:45:25 78° WNW 19:50:37 10° SSW
USA 307 2.9 19:42:23 10° WSW 19:46:39 73° NNW 19:46:43 72° NNW
Nadezhda 3 Rocket 4.2 19:41:36 10° NNW 19:47:57 74° W 19:54:17 10° S
Okean 1-7 4.3 19:44:30 10° N 19:46:54 29° NNE 19:46:54 29° NNE
Cosmos 2154 Rocket 4.0 19:43:00 10° SSW 19:49:14 81° W 19:55:29 10° N
IRS-1A Rocket 4.2 19:47:27 30° SSE 19:50:24 86° WSW 19:56:03 10° NNW
Cosmos 2263 Rocket 3.2 19:46:14 10° NW 19:51:30 44° WSW 19:55:56 14° S
Cosmos 2242 Rocket 4.2 19:46:58 10° N 19:50:16 45° NNE 19:50:16 45° NNE
USA 306 3.1 19:48:47 10° WSW 19:52:52 66° NW 19:52:52 66° NW
USA 308 3.3 19:52:42 10° WSW 19:56:37 62° NW 19:56:37 62° NW
Cosmos 1470 Rocket 3.7 19:52:41 10° SSW 19:57:10 76° W 20:01:40 10° N
Meteor 1-14 Rocket 4.0 19:54:04 10° S 19:59:41 85° E 20:05:16 10° NNE
OBJECT-B 3.3 20:05:18 19° NNW 20:05:18 19° NNW 20:06:25 10° NNW
SJ-6B 3.9 20:04:15 41° SW 20:04:50 45° W 20:08:48 10° NNW
Meteor 2-4 Rocket 3.8 20:05:04 10° NNW 20:10:49 80° W 20:11:52 61° S
GP-B 4.1 20:10:28 30° SW 20:12:09 45° W 20:16:27 10° NNW
Cosmos 1461 4.2 20:10:47 10° SW 20:13:50 40° SW 20:13:50 40° SW
BREEZE-M DEB (TANK) 4.2 19:59:31 10° W 20:16:37 75° S 20:17:21 67° SE
Cosmos 1932 4.4 20:10:15 10° SW 20:16:45 86° NW 20:18:17 56° NNE
CZ-2C R/B 4.4 20:13:01 10° N 20:17:54 32° WNW 20:22:41 10° SW
Cosmos 1844 4.1 20:13:11 10° NNW 20:17:59 55° NNE 20:17:59 55° NNE
Cosmos 44 Rocket 3.7 20:15:24 10° NW 20:19:59 65° WNW 20:19:59 65° WNW
USA 281 4.4 20:22:43 27° NNE 20:22:43 27° NNE 20:27:15 10° N
Cosmos 2278 Rocket 4.0 20:23:43 10° N 20:26:31 21° NNE 20:26:31 21° NNE
Cosmos 1844 Rocket 3.0 20:24:17 10° NNW 20:28:44 58° NNW 20:28:44 58° NNW
SPOT 3 Rocket 4.2 20:34:11 51° NW 20:34:11 51° NW 20:38:07 10° NNW
Gbstr 26 Del rocket 4.2 20:28:30 10° W 20:32:03 50° W 20:32:03 50° W
Cosmos 2341 Rocket 4.2 20:31:11 34° SSW 20:34:04 71° W 20:40:24 10° N
SL-8 Rocket 4.4 20:37:29 54° N 20:37:29 54° N 20:42:12 10° N
Cosmos 2322 Rocket 3.8 20:54:31 10° SW 20:57:04 26° WSW 20:57:04 26° WSW
USA 234 4.0 21:16:44 46° NNW 21:16:44 46° NNW 21:22:40 10° W
Resurs 01 Rocket 4.5 21:22:11 14° NW 21:22:11 14° NW 21:23:04 10° NW
SL-16 R/B 3.8 21:14:47 10° WSW 21:19:19 31° WNW 21:19:19 31° WNW
